Lid_Strength_Index
4 5 5 5 5 5 5 5 5 5 4 4 4 3 2 2 1 4 6 3 2 0 2 5 3 3 4 5 3 3 9 10 9 8 7 5 7 5 4 6 5 4 4 3 2
4 4 5 5 5 5 5 5 4 4 4 4 4 3 2 2 4 6 1 -1 -1 1 5 6 6 5 6 6 4 6 9 8 6 6 6 6 6 6 6 7 7 6 4 3 2
5 4 4 5 5 5 5 5 4 5 4 4 4 3 3 2 6 7 -0 -0 -1 1 4 5 5 6 7 5 6 6 9 6 6 5 5 6 6 5 6 8 6 7 6 4 3
5 4 4 4 4 5 5 5 4 4 5 4 4 3 2 4 12 3 0 -1 -0 1 5 5 6 8 9 8 5 9 6 6 5 5 6 6 5 7 6 6 4 4 4 4 4
4 4 4 4 4 5 5 5 4 4 5 4 4 3 4 9 8 2 -1 -0 0 1 4 6 7 9 9 7 6 8 7 5 5 5 5 5 7 7 7 5 4 4 4 4 4
3 3 4 4 4 4 4 4 4 4 4 4 4 3 7 11 4 2 2 1 1 1 3 4 6 7 9 9 9 6 6 6 5 6 5 7 7 7 7 5 5 5 5 4 5
3 3 3 4 4 4 4 4 4 4 4 4 3 4 8 8 3 2 1 1 1 1 3 2 3 6 8 10 7 7 8 7 6 6 7 6 9 9 6 5 6 6 6 7 7
4 4 3 4 4 4 4 4 4 4 4 4 3 5 9 4 2 1 0 1 0 0 1 1 2 5 7 7 8 9 8 12 8 7 6 7 12 8 7 6 7 6 7 8 8
4 4 4 4 4 4 4 4 4 4 4 3 4 6 9 1 3 1 -0 2 1 1 1 1 3 6 7 11 13 12 15 12 10 6 8 8 11 8 7 7 8 8 8 8 10
4 4 4 4 4 4 4 4 4 4 4 4 4 7 5 6 3 2 -0 1 3 3 4 5 6 10 10 12 17 16 15 12 12 9 8 10 10 8 8 7 8 9 8 9 9
4 4 4 4 4 4 4 5 8 8 7 9 8 7 5 2 0 2 1 2 3 5 9 7 11 13 12 10 11 12 13 15 10 9 9 10 10 10 9 7 9 8 10 10 10
4 4 4 4 4 4 4 8 8 7 10 7 6 4 2 2 5 3 1 5 6 9 7 9 13 9 8 9 11 12 15 16 14 10 11 10 11 9 9 9 8 8 7 8 10
4 4 4 4 4 4 6 6 4 4 9 8 6 5 4 3 6 5 3 5 7 8 9 10 9 7 9 11 13 13 15 16 16 14 11 10 13 12 11 10 9 9 8 8 9
4 4 4 4 5 5 6 4 3 4 11 11 8 5 4 4 7 2 2 5 7 9 8 10 7 9 10 11 11 15 11 12 15 16 18 11 18 13 12 13 12 10 10 10 10
4 4 4 5 5 7 6 4 3 5 18 10 7 2 3 6 6 6 2 5 9 9 8 10 9 10 12 11 9 12 10 12 12 15 17 16 17 13 11 13 12 11 10 11 12
5 6 5 4 4 5 4 4 5 12 17 11 7 7 7 6 6 5 5 4 5 8 8 9 6 8 9 8 8 9 11 12 12 14 19 16 17 16 13 11 10 10 10 11 12
6 6 5 4 7 4 5 5 12 15 10 11 10 8 8 9 8 8 8 9 10 13 13 10 10 8 7 11 9 10 14 19 20 20 20 14 17 15 10 9 9 10 11 11 12
7 6 6 6 4 4 5 10 16 14 12 9 9 8 11 9 9 9 9 11 8 9 11 14 16 10 8 9 11 12 13 17 22 21 19 15 19 15 11 10 8 9 10 11 12
7 6 5 6 6 5 7 13 13 12 9 10 9 12 11 10 10 10 10 10 9 8 12 12 13 8 8 8 8 12 15 11 16 16 18 16 14 11 12 11 10 11 12 13 13
8 7 7 6 6 6 11 12 11 9 8 9 13 11 13 11 12 12 11 9 9 7 7 9 14 9 8 8 8 10 9 15 15 20 22 17 16 14 14 11 10 11 12 12 12
8 9 7 7 7 8 12 11 11 8 7 10 11 12 11 12 11 12 11 9 8 9 7 8 11 12 10 11 12 12 13 12 12 15 18 19 16 11 10 10 10 10 10 10 12
9 13 7 7 12 13 12 12 9 8 7 8 8 10 11 10 12 12 12 10 8 9 11 8 11 14 13 9 8 10 11 12 16 18 15 16 15 13 12 10 9 10 10 10 11
9 9 7 8 14 13 13 12 9 9 9 9 10 9 9 11 13 11 11 7 8 10 11 8 12 17 15 13 10 12 11 11 11 13 17 18 15 12 13 12 9 10 10 10 11
9 13 10 10 11 12 13 12 11 8 8 8 9 8 10 12 10 12 11 9 8 10 7 8 11 14 17 15 12 13 12 11 12 16 15 15 13 12 12 11 11 11 11 11 12
9 12 12 14 13 12 11 12 11 11 8 8 9 9 11 13 12 12 11 10 8 8 8 10 14 12 12 12 11 12 12 11 13 12 15 13 13 11 11 11 10 9 10 11 12
12 12 12 14 13 13 12 11 11 10 9 10 10 9 10 12 11 13 11 11 11 10 10 9 14 12 14 12 12 14 12 11 11 12 12 12 12 10 10 9 10 10 11 11 12
10 10 10 14 14 13 11 11 11 8 8 8 8 10 10 9 8 8 9 9 10 11 12 12 12 14 16 13 13 16 13 11 11 10 10 14 10 11 12 11 10 10 10 11 11